Melbourne, FL

1:22 PM EST on February 07, 2016 (GMT -0500)
Melbourne International

Weather History for KMLB - October, 2013

Change the Weather History Date:

Friday, October 4, 2013

  Actual Average Record
Temperature  
Mean Temperature 79 °F 79 °F  
Max Temperature 87 °F 86 °F 93 °F (1964)
Min Temperature 71 °F 71 °F 61 °F (2010)
Degree Days  
Heating Degree Days 0 0  
Month to date heating degree days 0 0  
Since 1 July heating degree days 0 0  
Cooling Degree Days 14 14  
Month to date cooling degree days 60 56  
Year to date cooling degree days 3006 2748  
Growing Degree Days 28 (Base 50)    
Moisture  
Dew Point 69 °F    
Average Humidity 75    
Maximum Humidity 93    
Minimum Humidity 57    
Precipitation  
Precipitation 0.00 in 0.21 in 3.97 in (2000)
Month to date precipitation 0.00 0.85  
Year to date precipitation 35.73 42.34  
Sea Level Pressure  
Sea Level Pressure 30.05 in    
Wind  
Wind Speed 6 mph (ENE)    
Max Wind Speed 12 mph    
Max Gust Speed 15 mph    
Visibility 10 miles    
Events      
T = Trace of Precipitation, MM = Missing Value Source: NWS Daily Summary

Daily Weather History Graph

Daily Weather History Graph

Search for Another Location

Airport or City:

Trip Planner

Search our weather history database for the weather conditions in past years. The results will help you decide how hot, cold, wet, or windy it might be!

Date:

Astronomy

Oct. 04, 2013 Rise Set
Actual Time 7:17 AM EDT 7:04 PM EDT
Civil Twilight 6:53 AM EDT 7:28 PM EDT
Nautical Twilight 6:26 AM EDT 7:55 PM EDT
Astronomical Twilight 5:59 AM EDT 8:22 PM EDT
Moon 6:50 AM EDT (10/4) 6:49 PM EDT (10/4)
Length of Visible Light 12h 34m
Length of Day
11h 47m
Waning Crescent, 0% of the Moon is Illuminated
Oct 4
Waning Crescent
Oct 4
New
Oct 11
First Quarter
Oct 18
Full
Oct 26
Last Quarter

Hourly Weather History & Observations

Time (EDT) Temp. Heat Index Dew Point Humidity Pressure Visibility Wind Dir Wind Speed Gust Speed Precip Events Conditions
12:53 AM 79.0 °F - 70.0 °F 74% 30.05 in 10.0 mi East 5.8 mph - N/A   Clear
1:53 AM 79.0 °F - 70.0 °F 74% 30.05 in 10.0 mi East 3.5 mph - N/A   Clear
2:53 AM 79.0 °F - 71.1 °F 77% 30.04 in 10.0 mi East 4.6 mph - N/A   Clear
3:53 AM 79.0 °F - 70.0 °F 74% 30.03 in 10.0 mi East 4.6 mph - N/A   Clear
4:53 AM 73.9 °F - 70.0 °F 87% 30.03 in 10.0 mi Calm Calm - N/A   Mostly Cloudy
5:53 AM 73.0 °F - 70.0 °F 90% 30.03 in 10.0 mi Calm Calm - N/A   Clear
6:53 AM 72.0 °F - 69.1 °F 91% 30.04 in 10.0 mi Calm Calm - N/A   Mostly Cloudy
7:00 AM 71.6 °F - 69.8 °F 94% 30.04 in 10.0 mi Calm Calm - N/A   Mostly Cloudy
7:08 AM 73.4 °F - 69.8 °F 88% 30.05 in 10.0 mi Calm Calm - N/A   Scattered Clouds
7:53 AM 71.1 °F - 69.1 °F 93% 30.05 in 10.0 mi Calm Calm - N/A   Partly Cloudy
8:53 AM 80.1 °F 83.8 °F 72.0 °F 76% 30.08 in 10.0 mi Calm Calm - N/A   Clear
9:53 AM 82.9 °F 86.5 °F 69.1 °F 63% 30.08 in 10.0 mi ENE 6.9 mph - N/A   Clear
10:53 AM 84.0 °F 87.8 °F 69.1 °F 61% 30.09 in 10.0 mi ENE 5.8 mph - N/A   Scattered Clouds
11:53 AM 84.9 °F 88.8 °F 69.1 °F 59% 30.09 in 10.0 mi ESE 5.8 mph - N/A   Scattered Clouds
12:53 PM 86.0 °F 90.7 °F 70.0 °F 59% 30.08 in 10.0 mi NE 6.9 mph - N/A   Scattered Clouds
1:53 PM 86.0 °F 90.1 °F 69.1 °F 57% 30.05 in 10.0 mi East 8.1 mph - N/A   Scattered Clouds
2:53 PM 86.0 °F 90.7 °F 70.0 °F 59% 30.03 in 10.0 mi ENE 10.4 mph - N/A   Clear
3:53 PM 84.9 °F 88.8 °F 69.1 °F 59% 30.02 in 10.0 mi East 10.4 mph - N/A   Partly Cloudy
4:53 PM 84.0 °F 87.0 °F 68.0 °F 58% 30.02 in 10.0 mi East 9.2 mph - N/A   Clear
5:53 PM 82.9 °F 85.8 °F 68.0 °F 60% 30.02 in 10.0 mi NE 11.5 mph - N/A   Clear
6:53 PM 81.0 °F 84.1 °F 69.1 °F 67% 30.03 in 10.0 mi ENE 9.2 mph - N/A   Clear
7:53 PM 81.0 °F 83.3 °F 66.9 °F 62% 30.04 in 10.0 mi NE 9.2 mph - N/A   Clear
8:53 PM 80.1 °F 82.3 °F 66.9 °F 64% 30.04 in 10.0 mi ENE 8.1 mph - N/A   Clear
9:53 PM 80.1 °F 82.9 °F 69.1 °F 69% 30.07 in 10.0 mi ENE 6.9 mph - N/A   Clear
10:53 PM 79.0 °F - 66.9 °F 66% 30.07 in 10.0 mi ENE 6.9 mph - N/A   Clear
11:53 PM 79.0 °F - 69.1 °F 72% 30.07 in 10.0 mi ENE 5.8 mph - N/A   Clear